Tracking 17855 objects as of 25-September-2016
HD Live streaming from Space Station
objects crossing your sky now

METEOSAT 3

Track METEOSAT 3 now!
METEOSAT 3 is classified as:


NORAD ID: 19215
Int'l Code: 1988-051A
Perigee: -6,371.0 km
Apogee: -6,371.0 km
Inclination: 16.0 °
Period: 0.0 minutes
Semi major axis: 0 km
RCS: 4.1367 m2 (large)
Launch date: June 15, 1988
Source: European Space Agency (ESA)
Launch site: FRENCH GUIANA (FRGUI)
Your satellite tracking list
Your tracking list is empty





NASA's NSSDC Master Catalog

Two Line Element Set (TLE):
1 19215U 88051A   16268.37996023 -.00000093  00000-0  00000+0 0  9994
2 19215  16.0254  11.4719 0006133 245.2810 139.7929  0.96946711 88959
Source of the keplerian elements: AFSPC

N2YO: 686